K4DNM Weather Reports


Display with metric or nautical units.
time (UTC)temp
F
wind
direction
speed
MPH
gust
MPH
rain 1hr
in
rain 24hr
in
rain mn
in
humidity
%
barometer
mb
20260507073923 66 190 1.0 3.0 0.00 0.35 0.33 99 1009.6
20260507073423 66 113 1.0 2.0 0.00 0.35 0.33 99 1009.8
20260507072924 66 136 1.0 3.0 0.00 0.35 0.33 99 1010.1
20260507072424 66 207 2.0 3.0 0.00 0.35 0.33 99 1009.8
20260507072142 66 169 1.0 3.0 0.00 0.35 0.33 99 1009.8
20260507072023 66 169 1.0 3.0 0.00 0.35 0.33 99 1009.8
20260507071640 66 153 0.0 2.0 0.00 0.35 0.33 99 1010.1
20260507071524 66 153 0.0 2.0 0.00 0.35 0.33 99 1010.1
20260507070919 66 0 0.0 2.0 0.00 0.35 0.33 99 1010.4
20260507070418 66 190 0.0 2.0 0.00 0.35 0.33 99 1010.1
20260507065916 66 141 0.0 2.0 0.00 0.35 0.33 98 1010.1
20260507065417 66 0 0.0 2.0 0.00 0.35 0.33 98 1010.3
20260507064917 66 137 0.0 2.0 0.00 0.35 0.33 98 1010.3
20260507064419 66 0 0.0 3.0 0.00 0.35 0.33 98 1010.4
20260507063917 66 0 1.0 3.0 0.00 0.35 0.33 98 1010.5
20260507063417 66 195 1.0 3.0 0.01 0.35 0.33 98 1010.5
20260507063137 66 0 1.0 3.0 0.02 0.35 0.33 98 1010.7
20260507063021 66 0 1.0 3.0 0.02 0.35 0.33 98 1010.7
20260507062416 66 157 1.0 4.0 0.05 0.35 0.33 98 1011.1
20260507061915 66 0 1.0 4.0 0.09 0.35 0.33 98 1011.1
20260507061414 66 219 1.0 4.0 0.15 0.35 0.33 98 1010.8
20260507061139 67 210 1.0 2.0 0.20 0.35 0.33 98 1010.6
20260507061021 67 210 1.0 2.0 0.20 0.35 0.33 98 1010.6
20260507060414 67 190 0.0 2.0 0.26 0.35 0.33 98 1010.4
20260507055911 67 0 0.0 3.0 0.28 0.35 0.33 97 1010.5
20260507055639 67 0 1.0 4.0 0.30 0.35 0.33 97 1010.6
20260507055515 67 0 1.0 4.0 0.30 0.35 0.33 97 1010.6
20260507054912 67 148 2.0 4.0 0.31 0.35 0.33 97 1010.5
20260507054412 67 206 2.0 3.0 0.32 0.35 0.33 97 1010.3
20260507053912 67 169 2.0 7.0 0.31 0.34 0.33 97 1010.3
20260507053411 67 148 2.0 7.0 0.31 0.33 0.32 96 1010.0
20260507052909 67 123 0.0 3.0 0.29 0.32 0.30 96 1011.6
20260507052409 67 190 0.0 3.0 0.27 0.30 0.28 95 1012.2
20260507052127 67 0 0.0 3.0 0.23 0.25 0.24 94 1012.2
20260507052013 67 0 0.0 3.0 0.23 0.25 0.24 94 1012.2
20260507051408 67 247 1.0 4.0 0.17 0.19 0.18 94 1012.2
20260507051140 67 0 1.0 4.0 0.13 0.15 0.13 93 1012.3
20260507051014 67 0 1.0 4.0 0.13 0.15 0.13 93 1012.3
20260507050407 68 182 0.0 3.0 0.07 0.09 0.07 91 1012.5
20260507045906 68 0 0.0 2.0 0.05 0.06 0.05 89 1012.2
20260507045407 69 0 0.0 1.0 0.03 0.04 0.03 87 1012.1
20260507044907 69 91 0.0 2.0 0.02 0.03 0.02 85 1011.8
20260507044622 69 0 0.0 2.0 0.02 0.03 0.01 84 1011.7
20260507044511 69 0 0.0 2.0 0.02 0.03 0.01 84 1011.7
20260507043907 69 234 0.0 2.0 0.02 0.03 0.01 82 1011.5
20260507043408 70 153 0.0 2.0 0.02 0.03 0.01 82 1011.5
20260507042907 70 0 0.0 2.0 0.02 0.03 0.01 82 1011.7
20260507042407 71 0 0.0 3.0 0.02 0.03 0.01 80 1011.5
20260507042126 71 0 0.0 3.0 0.01 0.02 0.01 79 1011.6
20260507042012 71 0 0.0 3.0 0.01 0.02 0.01 79 1011.6
20260507041408 72 0 0.0 2.0 0.01 0.02 0.00 78 1011.8
20260507040904 72 237 1.0 5.0 0.01 0.02 0.00 76 1011.4
20260507040418 73 185 3.0 6.0 0.00 0.02 0.02 71 1010.9
20260507040407 73 0 2.0 6.0 0.01 0.02 0.00 74 1011.3
20260507040024 73 185 3.0 6.0 0.00 0.02 0.02 71 1010.9
20260507035409 73 172 3.0 6.0 0.00 0.01 0.01 71 1010.8
20260507034906 73 210 2.0 6.0 0.00 0.01 0.01 71 1010.8
20260507034407 73 209 2.0 5.0 0.00 0.01 0.01 71 1010.9
20260507033904 73 147 1.0 4.0 0.00 0.01 0.01 72 1011.1
20260507033406 73 184 1.0 3.0 0.00 0.01 0.01 72 1011.0
20260507033127 73 205 1.0 3.0 0.00 0.01 0.01 72 1011.1
20260507033010 73 205 1.0 3.0 0.00 0.01 0.01 72 1011.1
20260507032402 73 150 1.0 3.0 0.00 0.01 0.01 71 1011.2
20260507032342 73 0 1.0 3.0 0.00 0.01 0.01 71 1011.1
20260507032006 73 0 1.0 3.0 0.00 0.01 0.01 71 1011.1
20260507031402 73 0 1.0 2.0 0.00 0.01 0.01 71 1011.2
20260507030900 73 175 1.0 3.0 0.00 0.01 0.01 71 1011.0
20260507030400 73 247 1.0 4.0 0.00 0.01 0.01 71 1010.9
20260507030126 73 210 1.0 4.0 0.00 0.01 0.01 71 1010.9
20260507030004 73 210 1.0 4.0 0.00 0.01 0.01 71 1010.9
20260507025400 73 0 1.0 3.0 0.00 0.01 0.01 70 1010.9
20260507024900 73 53 1.0 3.0 0.00 0.01 0.01 70 1010.8
20260507024400 73 192 1.0 3.0 0.00 0.01 0.01 70 1010.8
20260507024117 73 214 1.0 4.0 0.00 0.01 0.01 69 1010.7
20260507024004 73 214 1.0 4.0 0.00 0.01 0.01 69 1010.7
20260507023402 73 206 1.0 5.0 0.00 0.01 0.01 70 1010.8
20260507022857 73 68 1.0 5.0 0.00 0.01 0.01 69 1010.9
20260507022357 73 0 1.0 3.0 0.00 0.01 0.01 70 1010.9
20260507021855 73 118 1.0 3.0 0.00 0.01 0.01 70 1010.9
20260507021354 73 0 1.0 5.0 0.00 0.01 0.01 70 1010.8
20260507020852 73 147 1.0 5.0 0.00 0.01 0.01 70 1010.9
20260507020351 73 124 0.0 2.0 0.00 0.01 0.01 70 1010.8
20260507015852 73 262 1.0 3.0 0.00 0.01 0.01 69 1010.7
20260507015351 73 127 0.0 3.0 0.00 0.01 0.01 69 1010.8
20260507014853 73 7 0.0 3.0 0.00 0.01 0.01 69 1010.8
20260507014616 74 303 1.0 5.0 0.00 0.01 0.01 68 1010.8
20260507014457 74 303 1.0 5.0 0.00 0.01 0.01 68 1010.8
20260507013852 74 177 1.0 5.0 0.00 0.01 0.01 68 1010.7
20260507013352 74 0 1.0 4.0 0.00 0.01 0.01 68 1010.8
20260507012852 74 0 1.0 5.0 0.00 0.01 0.01 68 1010.8
20260507012351 74 206 2.0 5.0 0.00 0.01 0.01 67 1010.7
20260507011849 74 176 2.0 5.0 0.00 0.01 0.01 67 1010.8
20260507011351 74 171 2.0 5.0 0.00 0.01 0.01 67 1010.7
20260507010851 74 214 1.0 5.0 0.00 0.01 0.01 67 1010.8
20260507010351 74 241 1.0 4.0 0.00 0.01 0.01 67 1010.8
20260507010109 74 0 2.0 4.0 0.00 0.01 0.01 67 1010.9
20260507005955 74 0 2.0 4.0 0.00 0.01 0.01 67 1010.9
20260507005351 74 202 1.0 4.0 0.00 0.01 0.01 67 1010.9
20260507004851 74 151 0.0 3.0 0.00 0.01 0.01 67 1011.0
20260507004350 74 180 0.0 3.0 0.00 0.01 0.01 66 1011.0
20260507003850 74 0 1.0 3.0 0.00 0.01 0.01 66 1010.9
20260507003618 74 180 1.0 3.0 0.00 0.01 0.01 65 1010.6
20260507003453 74 180 1.0 3.0 0.00 0.01 0.01 65 1010.6
20260507002849 74 200 1.0 4.0 0.00 0.01 0.01 65 1010.6
20260507002348 75 209 1.0 4.0 0.00 0.01 0.01 65 1010.7
20260507001846 75 153 1.0 4.0 0.00 0.01 0.01 64 1010.7
20260507001345 75 213 1.0 4.0 0.00 0.01 0.01 63 1010.8
20260507000844 76 174 1.0 5.0 0.00 0.01 0.01 63 1010.7
20260507000344 76 19 1.0 5.0 0.00 0.01 0.01 62 1010.6
20260506235845 76 20 1.0 4.0 0.00 0.01 0.01 62 1010.6
20260506235345 76 246 1.0 4.0 0.00 0.01 0.01 62 1010.5
20260506234846 76 143 1.0 6.0 0.00 0.01 0.01 62 1010.5
20260506234345 77 0 2.0 6.0 0.00 0.01 0.01 62 1010.5
20260506234321 77 178 2.0 9.0 0.00 0.01 0.01 62 1010.5
20260506233949 77 178 2.0 9.0 0.00 0.01 0.01 62 1010.5
20260506233611 77 291 2.0 9.0 0.00 0.01 0.01 61 1010.4
20260506233451 77 291 2.0 9.0 0.00 0.01 0.01 61 1010.4
20260506232844 77 160 2.0 6.0 0.00 0.01 0.01 63 1010.4
20260506232604 77 107 2.0 6.0 0.00 0.01 0.01 62 1010.4
20260506232447 77 107 2.0 6.0 0.00 0.01 0.01 62 1010.4
20260506231842 77 172 2.0 6.0 0.00 0.01 0.01 63 1010.3
20260506231341 78 191 1.0 4.0 0.00 0.01 0.01 62 1010.3
20260506230341 78 162 2.0 5.0 0.00 0.01 0.01 61 1010.4
20260506225841 78 0 2.0 6.0 0.00 0.01 0.01 62 1010.3
20260506225338 78 186 2.0 6.0 0.00 0.01 0.01 61 1010.3
20260506224837 78 225 2.0 5.0 0.00 0.01 0.01 60 1010.3
20260506224335 78 160 2.0 6.0 0.00 0.01 0.01 60 1010.2
20260506223836 78 345 3.0 8.0 0.00 0.01 0.01 59 1010.2
20260506223335 79 184 3.0 8.0 0.00 0.01 0.01 59 1010.0
20260506222835 79 0 3.0 8.0 0.00 0.01 0.01 59 1010.1
20260506222824 79 173 3.0 7.0 0.00 0.01 0.01 59 1010.0
20260506222437 79 173 3.0 7.0 0.00 0.01 0.01 59 1010.0
20260506221832 79 169 4.0 9.0 0.00 0.01 0.01 59 1010.0
20260506221334 79 185 3.0 9.0 0.00 0.01 0.01 58 1009.9
20260506220833 79 149 4.0 12.0 0.00 0.01 0.01 59 1009.9
20260506220333 79 195 4.0 12.0 0.00 0.01 0.01 58 1010.1
20260506215833 79 175 4.0 9.0 0.00 0.01 0.01 59 1010.2
20260506215334 79 135 4.0 9.0 0.00 0.01 0.01 59 1010.3
20260506214830 79 201 3.0 8.0 0.00 0.01 0.01 59 1010.3
20260506214334 79 58 2.0 7.0 0.00 0.01 0.01 59 1010.4
20260506213830 79 172 3.0 7.0 0.00 0.01 0.01 60 1010.4
20260506213330 79 278 3.0 7.0 0.00 0.01 0.01 60 1010.3
20260506212831 79 149 3.0 7.0 0.00 0.01 0.01 58 1010.3
20260506212331 79 134 3.0 6.0 0.00 0.01 0.01 61 1010.4
20260506211830 79 203 2.0 6.0 0.00 0.01 0.01 60 1010.4
20260506211330 78 305 2.0 6.0 0.00 0.01 0.01 62 1010.5
20260506210830 78 161 2.0 6.0 0.00 0.01 0.01 61 1010.4
20260506210331 78 219 2.0 6.0 0.00 0.01 0.01 62 1010.3
20260506205829 77 214 2.0 6.0 0.00 0.01 0.01 62 1010.5
20260506205329 77 181 2.0 6.0 0.00 0.01 0.01 63 1010.4
20260506204832 77 217 2.0 6.0 0.01 0.01 0.01 64 1010.4
20260506204327 77 261 1.0 6.0 0.01 0.01 0.01 65 1010.4
20260506203827 77 205 1.0 4.0 0.01 0.01 0.01 69 1010.4
20260506203328 76 0 0.0 2.0 0.01 0.01 0.01 68 1010.4
20260506202827 75 319 0.0 2.0 0.01 0.01 0.01 68 1010.4
20260506202327 75 2 1.0 4.0 0.01 0.01 0.01 73 1010.6
20260506201826 74 0 2.0 4.0 0.01 0.01 0.01 72 1010.2
20260506201327 74 171 2.0 4.0 0.01 0.01 0.01 71 1010.1
20260506200826 75 184 2.0 5.0 0.01 0.01 0.01 72 1010.5
20260506200547 76 188 1.0 5.0 0.01 0.01 0.01 70 1011.0
20260506200430 76 188 1.0 5.0 0.01 0.01 0.01 70 1011.0
20260506195826 77 137 1.0 4.0 0.01 0.01 0.01 71 1011.4
20260506195325 77 234 2.0 6.0 0.01 0.01 0.01 65 1011.6
20260506195310 78 148 2.0 8.0 0.00 0.00 0.00 60 1011.7
20260506194927 78 148 2.0 8.0 0.00 0.00 0.00 60 1011.7
20260506194317 79 138 1.0 8.0 0.00 0.00 0.00 59 1011.6
20260506194042 79 72 1.0 6.0 0.00 0.00 0.00 58 1011.9
20260506193922 79 72 1.0 6.0 0.00 0.00 0.00 58 1011.9
20260506193317 79 61 2.0 6.0 0.00 0.00 0.00 57 1012.1
20260506192814 79 306 2.0 6.0 0.00 0.00 0.00 57 1012.3
20260506192314 80 96 2.0 6.0 0.00 0.00 0.00 57 1012.3
20260506191813 80 94 2.0 7.0 0.00 0.00 0.00 56 1012.2
20260506191326 80 100 3.0 11.0 0.00 0.00 0.00 56 1012.2
20260506191030 80 352 3.0 11.0 0.00 0.00 0.00 55 1012.2
20260506190917 80 352 3.0 11.0 0.00 0.00 0.00 55 1012.2
20260506190314 80 146 3.0 8.0 0.00 0.00 0.00 54 1012.2
20260506190256 80 216 3.0 9.0 0.00 0.00 0.00 55 1012.3
20260506185918 80 216 3.0 9.0 0.00 0.00 0.00 55 1012.3
20260506185534 81 116 4.0 10.0 0.00 0.00 0.00 54 1012.2
20260506185417 81 116 4.0 10.0 0.00 0.00 0.00 54 1012.2
20260506184810 81 151 4.0 10.0 0.00 0.00 0.00 53 1012.2
20260506184311 81 351 3.0 11.0 0.00 0.00 0.00 56 1012.0
20260506183809 81 219 3.0 11.0 0.00 0.00 0.00 54 1012.4
20260506183531 81 176 2.0 7.0 0.00 0.00 0.00 56 1012.4
20260506183414 81 176 2.0 7.0 0.00 0.00 0.00 56 1012.4
20260506182809 81 50 2.0 7.0 0.00 0.00 0.00 54 1012.4
20260506182310 81 253 2.0 7.0 0.00 0.00 0.00 55 1012.5
20260506181807 81 284 3.0 10.0 0.00 0.00 0.00 55 1012.4
20260506181307 80 0 4.0 12.0 0.00 0.00 0.00 55 1012.5
20260506180807 80 255 4.0 12.0 0.00 0.00 0.00 56 1012.6
20260506180307 81 213 3.0 10.0 0.00 0.00 0.00 55 1012.8
20260506175807 80 215 3.0 6.0 0.00 0.00 0.00 57 1012.9
20260506175306 80 94 3.0 11.0 0.00 0.00 0.00 56 1012.9
20260506174805 80 317 4.0 11.0 0.00 0.00 0.00 55 1012.9
20260506174305 80 144 4.0 10.0 0.00 0.00 0.00 55 1013.0
20260506173801 80 167 4.0 11.0 0.00 0.00 0.00 55 1013.0
20260506173301 80 198 4.0 11.0 0.00 0.00 0.00 56 1013.1
20260506172802 80 173 3.0 8.0 0.00 0.00 0.00 55 1013.2
20260506172306 79 179 4.0 9.0 0.00 0.00 0.00 57 1013.1
20260506171801 78 163 4.0 11.0 0.00 0.00 0.00 58 1013.2
20260506171303 77 197 4.0 11.0 0.00 0.00 0.00 59 1013.3
20260506170802 77 357 4.0 10.0 0.00 0.00 0.00 58 1013.4
20260506170302 77 151 2.0 9.0 0.00 0.00 0.00 60 1013.5
20260506165803 76 233 2.0 6.0 0.00 0.00 0.00 62 1013.5
20260506165305 76 195 3.0 10.0 0.00 0.00 0.00 61 1013.4
20260506164800 76 210 3.0 10.0 0.00 0.00 0.00 60 1013.5
20260506164300 76 127 3.0 10.0 0.00 0.00 0.00 59 1013.6
20260506163800 76 205 3.0 10.0 0.00 0.00 0.00 59 1013.6
20260506163525 76 127 3.0 8.0 0.00 0.00 0.00 60 1013.6
20260506163404 76 127 3.0 8.0 0.00 0.00 0.00 60 1013.6
20260506162759 76 100 3.0 7.0 0.00 0.00 0.00 60 1013.6
20260506162300 75 298 4.0 11.0 0.00 0.00 0.00 61 1013.6
20260506161829 75 164 5.0 11.0 0.00 0.00 0.00 59 1013.6
20260506161259 75 147 4.0 13.0 0.00 0.00 0.00 59 1013.5
20260506160759 75 157 4.0 13.0 0.00 0.00 0.00 60 1013.5
20260506160258 75 322 3.0 8.0 0.00 0.00 0.00 61 1013.7
20260506155808 74 204 3.0 9.0 0.00 0.00 0.00 62 1013.4
20260506155252 73 298 4.0 12.0 0.00 0.00 0.00 63 1013.4
20260506154751 73 186 4.0 12.0 0.00 0.00 0.00 62 1013.4
20260506154521 73 185 4.0 10.0 0.00 0.00 0.00 62 1013.5
20260506154356 73 185 4.0 10.0 0.00 0.00 0.00 62 1013.5
20260506153752 73 300 4.0 10.0 0.00 0.00 0.00 63 1013.3
20260506153253 73 184 3.0 8.0 0.00 0.00 0.00 63 1013.5
20260506152753 73 225 3.0 8.0 0.00 0.00 0.00 62 1013.6
20260506152253 73 243 3.0 8.0 0.00 0.00 0.00 63 1013.5
20260506151753 73 0 4.0 11.0 0.00 0.00 0.00 64 1013.8
20260506151253 73 220 4.0 11.0 0.00 0.00 0.00 62 1013.7
20260506150753 74 176 4.0 11.0 0.00 0.00 0.00 62 1013.7
20260506150247 73 150 4.0 11.0 0.00 0.00 0.00 63 1013.8
20260506145747 73 137 3.0 9.0 0.00 0.00 0.00 63 1013.9
20260506145245 73 202 4.0 10.0 0.00 0.00 0.00 63 1013.9
20260506145010 72 206 3.0 10.0 0.00 0.00 0.00 64 1014.1
20260506144850 72 206 3.0 10.0 0.00 0.00 0.00 64 1014.1
20260506144240 71 210 2.0 8.0 0.00 0.00 0.00 65 1014.1
20260506143741 71 165 2.0 8.0 0.00 0.00 0.00 65 1014.2
20260506143241 71 145 3.0 8.0 0.00 0.00 0.00 66 1014.2
20260506142740 71 188 4.0 11.0 0.00 0.00 0.00 66 1014.1
20260506142507 71 245 4.0 11.0 0.00 0.00 0.00 66 1014.1
20260506142345 71 245 4.0 11.0 0.00 0.00 0.00 66 1014.1
20260506141741 71 214 3.0 10.0 0.00 0.00 0.00 66 1014.1
20260506141241 72 203 3.0 10.0 0.00 0.00 0.00 65 1014.1
20260506141218 72 190 2.0 7.0 0.00 0.00 0.00 66 1013.9
20260506140845 72 190 2.0 7.0 0.00 0.00 0.00 66 1013.9
20260506140239 71 1 2.0 5.0 0.00 0.00 0.00 67 1014.0
20260506135736 70 135 2.0 6.0 0.00 0.00 0.00 69 1014.1
20260506135236 69 168 2.0 6.0 0.00 0.00 0.00 70 1014.2
20260506134737 69 141 1.0 5.0 0.00 0.00 0.00 71 1014.3
20260506134237 69 153 2.0 6.0 0.00 0.00 0.00 72 1014.4
20260506133737 69 210 2.0 6.0 0.00 0.00 0.00 71 1014.4
20260506133235 69 217 3.0 6.0 0.00 0.00 0.00 71 1014.4
20260506132736 69 159 3.0 6.0 0.00 0.00 0.00 72 1014.4
20260506132237 69 189 3.0 6.0 0.00 0.00 0.00 72 1014.4
20260506131736 69 80 2.0 7.0 0.00 0.00 0.00 72 1014.2
20260506131236 69 221 2.0 8.0 0.00 0.00 0.00 72 1014.1
20260506130738 68 273 2.0 8.0 0.00 0.00 0.00 74 1013.9
20260506130240 67 275 2.0 8.0 0.00 0.00 0.00 75 1013.9
20260506125740 67 121 3.0 7.0 0.00 0.00 0.00 76 1013.8
20260506125236 66 223 3.0 7.0 0.00 0.00 0.00 78 1013.8
20260506124959 66 119 3.0 5.0 0.00 0.00 0.00 79 1013.7
20260506124841 66 119 3.0 5.0 0.00 0.00 0.00 79 1013.7
20260506124235 65 179 3.0 6.0 0.00 0.00 0.00 80 1013.8
20260506123953 65 156 2.0 6.0 0.00 0.00 0.00 81 1013.8
20260506123838 65 156 2.0 6.0 0.00 0.00 0.00 81 1013.8
20260506123234 64 18 2.0 4.0 0.00 0.00 0.00 83 1013.8
20260506122734 64 234 2.0 5.0 0.00 0.00 0.00 84 1013.8
20260506122223 64 160 3.0 6.0 0.00 0.00 0.00 84 1013.8
20260506121723 64 218 3.0 6.0 0.00 0.00 0.00 84 1013.7
20260506121223 64 222 3.0 6.0 0.00 0.00 0.00 84 1013.7
20260506120949 64 153 3.0 6.0 0.00 0.00 0.00 84 1013.5
20260506120828 64 153 3.0 6.0 0.00 0.00 0.00 84 1013.5
20260506120439 63 203 3.0 5.0 0.00 0.00 0.00 83 1013.5
20260506120326 63 203 3.0 5.0 0.00 0.00 0.00 83 1013.5
20260506120148 62 214 3.0 4.0 0.00 0.00 0.00 86 1013.6
20260506115813 62 214 3.0 4.0 0.00 0.00 0.00 86 1013.6
20260506115429 62 173 2.0 4.0 0.00 0.00 0.00 87 1013.7
20260506115313 62 173 2.0 4.0 0.00 0.00 0.00 87 1013.7
20260506114709 61 193 2.0 5.0 0.00 0.00 0.00 88 1013.8
20260506114153 61 178 3.0 6.0 0.00 0.00 0.00 89 1013.8
20260506113637 61 212 3.0 6.0 0.00 0.00 0.00 89 1013.9
20260506113358 61 138 3.0 5.0 0.00 0.00 0.00 89 1013.9
20260506113242 61 138 3.0 5.0 0.00 0.00 0.00 89 1013.9
20260506112650 61 226 2.0 7.0 0.00 0.00 0.00 89 1013.8
20260506112138 60 220 2.0 7.0 0.00 0.00 0.00 90 1013.8
20260506111638 60 132 2.0 5.0 0.00 0.00 0.00 90 1013.6
20260506111137 60 191 2.0 5.0 0.00 0.00 0.00 90 1013.7
20260506110640 60 159 2.0 5.0 0.00 0.00 0.00 90 1013.7
20260506110141 60 232 3.0 5.0 0.00 0.00 0.00 90 1013.6
20260506105640 60 223 3.0 4.0 0.00 0.00 0.00 90 1013.4
20260506105141 60 206 3.0 4.0 0.00 0.00 0.00 90 1013.5
20260506104641 59 184 2.0 4.0 0.00 0.00 0.00 91 1013.4
20260506104141 59 185 2.0 3.0 0.00 0.00 0.00 92 1013.4
20260506104127 59 210 2.0 4.0 0.00 0.00 0.00 92 1013.7
20260506103746 59 210 2.0 4.0 0.00 0.00 0.00 92 1013.7
20260506103126 59 108 2.0 4.0 0.00 0.00 0.00 92 1013.8
20260506102625 59 198 2.0 4.0 0.00 0.00 0.00 92 1013.8
20260506102126 59 224 2.0 4.0 0.00 0.00 0.00 92 1013.7
20260506101845 59 107 2.0 4.0 0.00 0.00 0.00 92 1013.6
20260506101732 59 107 2.0 4.0 0.00 0.00 0.00 92 1013.6
20260506101125 59 179 2.0 4.0 0.00 0.00 0.00 92 1013.6
20260506100628 59 182 2.0 3.0 0.00 0.00 0.00 92 1013.7
20260506100139 59 180 2.0 3.0 0.00 0.00 0.00 91 1013.7
20260506095828 59 230 1.0 2.0 0.00 0.00 0.00 91 1013.9
20260506095717 59 217 1.0 3.0 0.00 0.00 0.00 91 1013.9
20260506095231 59 230 1.0 2.0 0.00 0.00 0.00 91 1013.9
20260506094612 59 74 1.0 2.0 0.00 0.00 0.00 90 1013.9
20260506094112 59 249 1.0 2.0 0.00 0.00 0.00 90 1013.9
20260506093556 59 169 2.0 4.0 0.00 0.00 0.00 90 1013.8
20260506093056 59 207 2.0 4.0 0.00 0.00 0.00 90 1013.8
20260506092559 60 59 2.0 3.0 0.00 0.00 0.00 89 1013.8
20260506092551 60 167 2.0 4.0 0.00 0.00 0.00 89 1013.7
20260506092204 60 167 2.0 4.0 0.00 0.00 0.00 89 1013.7
20260506091559 60 221 2.0 6.0 0.00 0.00 0.00 89 1013.8
20260506091049 60 239 3.0 6.0 0.00 0.00 0.00 89 1013.7
20260506090754 60 236 2.0 4.0 0.00 0.00 0.00 89 1013.7
20260506090648 60 199 3.0 4.0 0.00 0.00 0.00 89 1013.6
20260506090148 60 236 2.0 4.0 0.00 0.00 0.00 89 1013.7
20260506085546 59 343 2.0 4.0 0.00 0.00 0.00 89 1013.8
20260506085308 59 253 2.0 5.0 0.00 0.00 0.00 89 1013.9
20260506085149 59 253 2.0 5.0 0.00 0.00 0.00 89 1013.9
20260506084545 59 250 2.0 5.0 0.00 0.00 0.00 89 1013.7
20260506084028 59 214 2.0 3.0 0.00 0.00 0.00 89 1013.6
20260506083515 59 199 2.0 4.0 0.00 0.00 0.00 89 1013.6
20260506083013 59 190 2.0 4.0 0.00 0.00 0.00 89 1013.7
20260506082515 59 174 1.0 2.0 0.00 0.00 0.00 90 1013.6
20260506082014 59 158 1.0 3.0 0.00 0.00 0.00 90 1013.7
20260506081736 59 281 1.0 4.0 0.00 0.00 0.00 90 1013.7
20260506081618 59 281 1.0 4.0 0.00 0.00 0.00 90 1013.7
20260506081013 59 174 2.0 4.0 0.00 0.00 0.00 90 1013.7
20260506080514 58 223 2.0 4.0 0.00 0.00 0.00 90 1013.8